Voltar ao catálogo

QIANFAN-65

AtivoComunicaçõesPO
NORAD 62795·PAYLOAD·🇨🇳 China

Lançado Jan 23, 2025 de Taiyuan Satellite Launch Center

Loading…

Próximas Passagens (próximas 24 horas)

TLE

AtualizadoSource: Space-Track

Época: Sep 14, 2026, 12:58 UTC

1 62795U 25016L   26257.54085694  .00000026  00000-0  22269-4 0  9999
2 62795  88.9652  74.3796 0012070 266.0869  93.8902 13.51023379 84481

Acompanhe QIANFAN-65 em tempo real com AllMySat

Download on the App Store